Hourly Weather Roundup
Issued by NWS Central Illinois

Home | Current Version | Previous Version | Text Only | Print | Product List | Glossary On
Versions: 1 2 3 4 5 6 7 8 9 10 11 12 13 14 15 16 17 18 19 20 21 22 23 24 25 26 27 28 29 30 31 32 33 34 35 36 37 38 39 40 41 42 43 44 45 46 47 48 49 50
000
NZUS43 KILX 281310
HWRILX

AREA WEATHER ROUNDUP
NATIONAL WEATHER SERVICE, LINCOLN IL
700 AM CST WED JAN 28 2015


CITY           SKY/WX    TMP DP  RH WIND       PRES   REMARKS
BLOOMINGTON    PTCLDY    23  19  85 SE10      30.26F WCI  12
CHAMPAIGN      CLEAR     21  16  81 SE7       30.29R WCI  12
DECATUR        CLEAR     23  17  78 SE10      30.27F WCI  12
FLORA          CLEAR     24  22  93 E3        30.32R FOG
GALESBURG      PTCLDY    25  22  87 SE8       30.21S WCI  17
JACKSONVILLE   CLEAR     29  25  85 SE8       30.23S WCI  21
LACON          PTCLDY    23  18  81 SE10      30.25S WCI  12
LAWRENCEVILLE  CLEAR     24  19  81 E6        30.34R WCI  17
LITCHFIELD     CLEAR     26  22  87 SE10      30.26R WCI  15
$$


CITY           SKY/WX    TMP DP  RH WIND       PRES   REMARKS
LINCOLN        CLEAR     26  20  80 SE8       30.28S WCI  17
MACOMB         PTCLDY    26  24  92 SE12      30.23S WCI  16
MATTOON        CLEAR     22  16  78 SE9       30.29R WCI  12
MT CARMEL AP   CLEAR     28  21  74 SE6       30.33R WCI  22
OLNEY-NOBLE AP CLEAR     23  19  86 CALM      30.33R
PARIS          CLEAR     21  18  88 N3        30.32R
PEORIA         CLEAR     26  20  77 SE7       30.25S WCI  18
PONTIAC        NOT AVBL
RANTOUL        CLEAR     23  19  84 SE6       30.31R WCI  15
ROBINSON       CLEAR     23  19  87 SE7       30.34R WCI  14
SPRINGFIELD    CLEAR     26  20  77 S9        30.25S WCI  17
TAYLORVILLE    CLEAR     27  21  80 SE12      30.26F WCI  16
$$

...REGIONAL REPORTS...


CITY           SKY/WX    TMP DP  RH WIND       PRES   REMARKS
CHICAGO O`HARE MOCLDY    20  16  84 S6        30.28R WCI  12
KANKAKEE       PTCLDY    19  17  90 SE3       30.31R
MOLINE         PTCLDY    25  21  85 SE7       30.21R WCI  17
MOUNT VERNON   CLEAR     27  21  80 E3        30.29F
PITTSFIELD     CLEAR     29  26  90 SE12      30.21S WCI  19
QUINCY         CLEAR     28  24  85 SE15      30.16F FOG     WCI  16
ROCKFORD       MOCLDY    22  16  78 S10       30.27S WCI  11
$$


CITY           SKY/WX    TMP DP  RH WIND       PRES   REMARKS
BURLINGTON     PTCLDY    27  24  89 SE10      30.16F WCI  17
CEDAR RAPIDS   CLOUDY    28  28 100 SE12G20   30.13S FOG     WCI  18
DES MOINES     CLOUDY    31  27  85 SE13G21   30.02F FOG     WCI  21
KIRKSVILLE     CLEAR     29  27  92 SE13      30.07F FOG     WCI  19
OTTUMWA        PTCLDY    28  26  92 SE14      30.07F WCI  17
ST LOUIS       PTCLDY    31  26  82 SE13      30.24R WCI  21
$$


CITY           SKY/WX    TMP DP  RH WIND       PRES   REMARKS
TERRE HAUTE    CLEAR     20  15  81 SE6       30.33R WCI  12
EVANSVILLE     CLEAR     29  20  69 SE3       30.34R
INDIANAPOLIS   PTCLDY    15  13  91 SE5       30.33R WCI   8
LAFAYETTE      PTCLDY    17  14  88 CALM      30.32R
MADISON        CLOUDY    21  17  84 S8        30.22R WCI  11
MILWAUKEE      MOCLDY    23  17  78 S6        30.26S WCI  16
$$




USA.gov is the U.S. government's official web portal to all federal, state and local government web resources and services.